This demonstration page uses our WeatherBlox Daily Observations layout. Learn more.

Left ArrowRight Arrow

39.29038, -76.61219

Hourly Observations for February 1, 2021

Temp ( °F °C ) Dew Point ( °F °C ) Humidity (%) Winds ( mph kmh ) Pressure ( in mb ) Visibility ( mi km ) Precip ( " mm )
12:54 am 00:54 Cloudy with Light Freezing Drizzle 29 -1.7 26 -3.3 89 89 NE 12 19 29.87 1012 3 5 0.00 0.00
1:54 am 01:54 Cloudy with Light Freezing Drizzle 30 -1.1 27 -2.8 88 88 NNE 14 22 29.85 1011 3 5 0.00 0.00
2:54 am 02:54 Cloudy with Light Freezing Drizzle 31 -0.6 27 -2.8 85 85 NNE 13 20 29.83 1010 3 5 0.00 0.00
3:21 am 03:21 Cloudy with Light Freezing Rain 31 -0.6 28 -2.2 89 89 NNE 9 15 29.82 1010 3 4 0.00 0.00
3:42 am 03:42 Cloudy with Light Freezing Rain 31 -0.6 28 -2.2 89 89 N 9 15 29.81 1010 3 5 0.01 0.25
3:54 am 03:54 Cloudy with Light Freezing Rain 31 -0.6 28 -2.2 89 89 NNE 9 15 29.81 1009 3 5 0.03 0.76
4:24 am 04:24 Cloudy with Light Freezing Rain 31 -0.6 27 -2.8 85 85 N 9 15 29.81 1010 3 4 0.01 0.25
4:54 am 04:54 Cloudy with Light Freezing Rain 31 -0.6 27 -2.8 85 85 N 10 17 29.79 1009 3 4 0.02 0.51
5:14 am 05:14 Cloudy with Light Freezing Drizzle 31 -0.6 27 -2.8 85 85 N 10 17 29.80 1009 3 5 0.00 0.00
5:46 am 05:46 Cloudy with Light Freezing Rain 31 -0.6 28 -2.2 89 89 N 10 17 29.81 1010 2 2 0.02 0.51
5:54 am 05:54 Cloudy with Light Freezing Rain 31 -0.6 28 -2.2 89 89 N 9 15 29.80 1009 2 3 0.02 0.51
6:54 am 06:54 Cloudy with Light Freezing Rain 31 -0.6 28 -2.2 89 89 N 8 13 29.79 1009 2 3 0.02 0.51
7:30 am 07:30 Cloudy with Light Freezing Rain 31 -0.6 29 -1.7 92 92 NNW 9 15 29.80 1009 2 3 0.02 0.51
7:54 am 07:54 Cloudy with Light Freezing Rain 32 undefined 29 -1.7 88 88 N 10 17 29.78 1009 2 2 0.03 0.76
8:33 am 08:33 Cloudy with Light Freezing Rain 32 undefined 29 -1.7 88 88 N 8 13 29.79 1009 3 4 0.02 0.51
8:54 am 08:54 Cloudy with Light Freezing Rain 32 undefined 29 -1.7 88 88 NNW 10 17 29.78 1009 2 2 0.03 0.76
9:54 am 09:54 Cloudy with Light Freezing Rain 32 undefined 29 -1.7 88 88 N 9 15 29.78 1008 2 3 0.06 1.52
10:16 am 10:16 Cloudy with Light Freezing Rain 32 undefined 29 -1.7 88 88 NNW 8 13 29.78 1008 3 4 0.00 0.00
10:54 am 10:54 Cloudy with Light Freezing Rain 32 undefined 29 -1.7 88 88 NNW 7 11 29.77 1008 3 4 0.01 0.25
11:41 am 11:41 Cloudy with Light Freezing Rain 32 undefined 29 -1.7 88 88 NNW 8 13 29.76 1008 3 4 0.02 0.51
11:54 am 11:54 Cloudy with Light Freezing Rain 32 undefined 29 -1.7 88 88 NNW 8 13 29.75 1007 3 4 0.02 0.51
12:02 pm 12:02 Cloudy with Light Freezing Rain 32 undefined 28 -2.2 85 85 NNW 10 17 29.76 1008 2 3 0.00 0.00
12:54 pm 12:54 Cloudy with Mist and Fog 32 undefined 28 -2.2 85 85 NNW 10 17 29.73 1007 2 3 0.02 0.51
1:12 pm 13:12 Cloudy with Light Freezing Rain 32 undefined 28 -2.2 85 85 NNW 9 15 29.73 1007 3 4 0.01 0.25
1:45 pm 13:45 Cloudy with Light Wintry Mix 32 undefined 28 -2.2 85 85 NW 9 15 29.73 1007 3 4 0.02 0.51
1:54 pm 13:54 Cloudy with Light Snow 32 undefined 28 -2.2 85 85 NW 9 15 29.72 1006 3 4 0.02 0.51
2:07 pm 14:07 Cloudy with Light Wintry Mix 32 undefined 28 -2.2 85 85 NNW 9 15 29.72 1006 3 4 0.00 0.00
2:20 pm 14:20 Cloudy with Light Wintry Mix 32 undefined 28 -2.2 85 85 NW 9 15 29.73 1007 4 6 0.01 0.25
2:28 pm 14:28 Cloudy with Light Snow 32 undefined 28 -2.2 85 85 NW 9 15 29.72 1006 2 3 0.01 0.25
2:44 pm 14:44 Cloudy with Light Wintry Mix 32 undefined 28 -2.2 85 85 NNW 9 15 29.72 1006 3 5 0.02 0.51
2:54 pm 14:54 Cloudy with Light Wintry Mix 32 undefined 28 -2.2 85 85 NNW 8 13 29.71 1006 3 5 0.02 0.51
2:56 pm 14:56 Cloudy with Light Freezing Drizzle 32 undefined 28 -2.2 85 85 NNW 6 9 29.72 1006 4 6 0.00 0.00
3:54 pm 15:54 Cloudy with Light Freezing Drizzle 32 undefined 28 -2.2 85 85 NNW 7 11 29.71 1006 6 10 0.00 0.00
4:02 pm 16:02 Cloudy with Light Snow 32 undefined 28 -2.2 85 85 NNW 10 17 29.72 1006 10 16 0.00 0.00
4:41 pm 16:41 Cloudy with Light Snow 32 undefined 28 -2.2 85 85 NNW 8 13 29.73 1007 2 3 0.01 0.25
4:54 pm 16:54 Cloudy with Light Snow 32 undefined 28 -2.2 85 85 NNW 8 13 29.73 1007 2 2 0.01 0.25
5:06 pm 17:06 Cloudy with Light Snow 32 undefined 29 -1.7 88 88 NNW 8 13 29.74 1007 3 4 0.00 0.00
5:14 pm 17:14 Cloudy with Light Snow 32 undefined 29 -1.7 88 88 NNW 6 9 29.73 1007 4 6 0.00 0.00
5:54 pm 17:54 Cloudy with Light Snow 32 undefined 29 -1.7 88 88 NNW 8 13 29.72 1007 2 3 0.00 0.00
6:26 pm 18:26 Cloudy with Light Snow 32 undefined 29 -1.7 88 88 NW 8 13 29.72 1006 5 8 0.01 0.25
6:52 pm 18:52 Cloudy with Light Snow 32 undefined 28 -2 87 87 NW 9 15 29.72 1006 9 14 0.01 0.25
6:54 pm 18:54 Cloudy with Light Snow 32 undefined 28 -2.2 85 85 NW 7 11 29.71 1006 9 14 0.01 0.25
7:25 pm 19:25 Cloudy 32 undefined 28 -2.2 85 85 NW 8 13 29.71 1006 10 16 0.00 0.00
7:54 pm 19:54 Cloudy with Light Snow 32 undefined 28 -2.2 85 85 NW 9 15 29.69 1006 9 14 0.00 0.00
8:54 pm 20:54 Cloudy 32 undefined 28 -2.2 85 85 NW 7 11 29.68 1005 10 16 0.00 0.00
9:54 pm 21:54 Cloudy 33 0.6 29 -1.7 85 85 NW 7 11 29.66 1005 10 16 N/A
10:21 pm 22:21 Cloudy 33 0.6 29 -1.7 85 85 NW 7 11 29.67 1005 10 16 N/A
10:54 pm 22:54 Cloudy 33 0.6 29 -1.7 85 85 NW 7 11 29.65 1004 10 16 N/A
11:54 pm 23:54 Cloudy 33 0.6 29 -1.7 85 85 NW 8 13 29.62 1003 10 16 N/A

Powered by AerisWeather